Regional Weather Roundup
Issued by NWS Midland/Odessa, TX

Home | Current Version | Previous Version | Text Only | Print | Product List | Glossary On
Versions: 1 2 3 4 5 6 7 8 9 10 11 12 13 14 15 16 17 18 19 20 21 22 23 24 25 26 27 28 29 30 31 32 33 34 35 36 37 38 39 40 41 42 43 44 45 46 47 48 49 50
000
ASUS44 KMAF 251310
RWRMAF
MIDLAND AREA WEATHER ROUNDUP
NATIONAL WEATHER SERVICE MIDLAND TX
800 AM CDT WED MAY 25 2016

...IN SOUTHWEST TEXAS AND SOUTHEAST NEW MEXICO...

CITY           SKY/WX    TMP DP  RH WIND       PRES   REMARKS
ALPINE         CLOUDY    68  36  30 SW5       30.17R
ANDREWS        CLOUDY    68  68 100 SW8       30.00R FOG
ARTESIA        SUNNY     63  19  19 W7        30.03R
BIG SPRING     CLOUDY    70  68  92 S9        29.98R
CARLSBAD       SUNNY     69  21  16 E5        30.01R
DRYDEN           N/A     75  72  90 S6        29.98R
FORT STOCKTON  PTSUNNY   70  43  37 SW7       30.02R
GUAD PASS      NOT AVBL
HOBBS          SUNNY     59  59 100 SW7       30.02R
MARFA          SUNNY     61  39  44 NE3       30.16R
MIDLAND AIRPK  SUNNY     75  69  82 SW6       29.99R HAZE
MIDLAND INTL   SUNNY     74  69  85 SW10      29.98R HAZE
ODESSA         SUNNY     73  69  87 SW8       29.99R FOG
PECOS          SUNNY     68  25  19 W7        30.00R HAZE
PRESIDIO       NOT AVBL
SEMINOLE       FOG       65  65 100 SW6       30.00R VSB 1/2
SNYDER           N/A     73  71  93 S3        29.95S FOG
WINK           CLOUDY    63  63 100 MISG      29.98R
$$
...OTHER STATIONS IN TEXAS...

CITY           SKY/WX    TMP DP  RH WIND       PRES   REMARKS
ABILENE        CLOUDY    75  72  90 S13       29.93R FOG
AMARILLO       SUNNY     59  38  45 SW9       29.95R
AUSTIN         CLOUDY    79  75  87 S9        29.97S
BROWNSVILLE    CLOUDY    81  78  91 SE14      29.95R
CORPUS CHRISTI PTSUNNY   81  78  91 SE7       29.96R FOG
DALLAS FTW     CLOUDY    79  72  79 S14G25    29.96R
DEL RIO        CLOUDY    78  75  90 SE13      29.93R
EL PASO        SUNNY     67  23  19 CALM      30.08R
HOUSTON INT    MOSUNNY   79  76  90 SE10      30.03R
LUBBOCK        PTSUNNY   68  66  93 SW16      29.96R FOG
SAN ANGELO     PTSUNNY   78  73  84 S9        29.93R HAZE
SAN ANTONIO    LGT RAIN  78  74  87 SE12      29.98S
WACO           CLOUDY    77  73  87 SE13      29.98R
WICHITA FALLS  NOT AVBL
$$
...OTHER LOCATIONS IN NEW MEXICO...

CITY           SKY/WX    TMP DP  RH WIND       PRES   REMARKS
ALAMAGORDO     SUNNY     55  28  35 S5        30.09R
ALBUQUERQUE    SUNNY     59  13  16 NW5       30.13R
CANNON AFB     SUNNY     64  24  21 NW13      30.02R
CLOVIS         SUNNY     59  30  33 W9        30.01R
HOLLOMAN AFB   SUNNY     62  20  19 SE10      30.07R
ROSWELL        SUNNY     62  27  26 W5        30.02R
RUIDOSO          N/A     55  19  24 SE6       30.20R
SANTA FE       SUNNY     47  10  22 NE8       30.14R
TRUTH OR CONSE SUNNY     59  20  22 W8        30.10R
TUCUMCARI      SUNNY     63  24  22 W9        29.97R
$$




USA.gov is the U.S. government's official web portal to all federal, state and local government web resources and services.